Location: Unspecified
(0.0000°N, 0.0000°E)
Time: 07:42:45
(UTC+00:00)

N. Korean satellite - Visible Passes

Search period start: 10 June 2023 00:00
Search period end: 20 June 2023 00:00
Orbit: 362 x 377 km, 97.3° (Epoch: 09 June)

Date Brightness Start Highest point End Pass type
(mag) Time Alt. Az. Time Alt. Az. Time Alt. Az.
10 Jun 6.0 05:24:35 10° N 05:27:29 61° W 05:30:22 10° SSW visible
12 Jun 8.0 04:56:36 10° NE 04:59:10 28° E 05:01:45 10° SSE visible
13 Jun 6.1 05:27:23 10° N 05:30:13 54° WNW 05:33:04 10° SSW visible
15 Jun 7.9 04:58:25 10° NE 05:01:01 30° E 05:03:37 10° SSE visible
16 Jun 6.2 05:28:47 10° N 05:31:36 51° W 05:34:25 10° SSW visible
18 Jun 7.9 04:58:54 10° NE 05:01:29 30° E 05:04:04 10° SSE visible
19 Jun 6.1 05:28:47 10° N 05:31:36 53° W 05:34:25 10° SSW visible
